Location: Fontevrault
(47.1823°N, 0.0493°E)
Time: 03:22:06
(UTC+00:00)

Cosmos 1459 Rocket - Pass Details

Date: 22 October 2021
Orbit: 936 x 1000 km, 83.0° (Epoch: 01 December)

Event Time Altitude Azimuth Distance (km) Brightness Sun altitude
Rises 05:42:19 0° 358° (N) 3,615 6.9 -8.5°
Reaches altitude 10° 05:45:09 10° 9° (N) 2,662 6.3 -8.0°
Maximum altitude 05:50:25 30° 69° (ENE) 1,617 6.0 -7.1°
Drops below altitude 10° 05:55:39 10° 130° (SE) 2,648 7.4 -6.2°
Sets 05:58:27 0° 141° (SE) 3,593 7.8 -5.8°
